Glasgow, United Kingdom

11:27 PM GMT on November 24, 2017 (GMT +0000)
Glasgow

Weather History for EGPF - March, 2012

Change the Weather History Date:

Saturday, March 17, 2012

  Actual Average Record
Temperature  
Mean Temperature 42 °F -  
Max Temperature 50 °F 50 °F 57 °F (2002)
Min Temperature 32 °F 36 °F 24 °F (2003)
Degree Days  
Heating Degree Days 24    
Moisture  
Dew Point 36 °F    
Average Humidity 81    
Maximum Humidity 100    
Minimum Humidity 50    
Precipitation  
Precipitation 0.00 in - - ()
Sea Level Pressure  
Sea Level Pressure 29.82 in    
Wind  
Wind Speed 6 mph ()    
Max Wind Speed 12 mph    
Max Gust Speed -    
Visibility 6.2 miles    
Events      
Averages and records for this station are not official NWS values.
T = Trace of Precipitation, MM = Missing Value Source: Averaged Metar Reports

Daily Weather History Graph

Daily Weather History Graph

Search for Another Location

Airport or City:

Trip Planner

Search our weather history database for the weather conditions in past years. The results will help you decide how hot, cold, wet, or windy it might be!

Date:

Astronomy

Mar. 17, 2012 Rise Set
Actual Time 6:26 AM GMT 6:26 PM GMT
Civil Twilight 5:50 AM GMT 7:03 PM GMT
Nautical Twilight 5:06 AM GMT 7:46 PM GMT
Astronomical Twilight 4:20 AM GMT 8:32 PM GMT
Moon 4:10 AM GMT (3/17) 12:46 PM GMT (3/17)
Length of Visible Light 13h 12m
Length of Day
11h 59m
Waning Crescent, 25% of the Moon is Illuminated
Mar 17
Waning Crescent
Mar 22
New
Mar 30
First Quarter
Apr 6
Full
Apr 13
Last Quarter

Hourly Weather History & Observations

Time (GMT) Temp. Windchill Dew Point Humidity Pressure Visibility Wind Dir Wind Speed Gust Speed Precip Events Conditions
12:20 AM 42.8 °F 38.6 °F 41.0 °F 93% 29.77 in 6.2 mi SW 6.9 mph - N/A   Scattered Clouds
12:50 AM 41.0 °F 36.4 °F 39.2 °F 93% 29.77 in - WSW 6.9 mph - N/A   Clear
1:20 AM 39.2 °F 37.0 °F 39.2 °F 100% 29.77 in 6.2 mi Variable 3.5 mph - N/A   Partly Cloudy
1:50 AM 39.2 °F 37.0 °F 37.4 °F 93% 29.77 in 6.2 mi West 3.5 mph - N/A   Partly Cloudy
2:20 AM 39.2 °F 33.0 °F 37.4 °F 93% 29.77 in 6.2 mi SW 9.2 mph - N/A   Partly Cloudy
2:50 AM 37.4 °F 31.4 °F 35.6 °F 93% 29.77 in - SW 8.1 mph - N/A   Clear
3:20 AM 37.4 °F 33.8 °F 35.6 °F 93% 29.77 in 6.2 mi WSW 4.6 mph - N/A   Partly Cloudy
3:50 AM 37.4 °F - 35.6 °F 93% 29.77 in - Variable 2.3 mph - N/A   Clear
4:20 AM 37.4 °F - 35.6 °F 93% 29.77 in 6.2 mi Variable 2.3 mph - N/A   Partly Cloudy
4:50 AM 35.6 °F 29.2 °F 35.6 °F 100% 29.77 in 6.2 mi SW 8.1 mph - N/A   Partly Cloudy
5:20 AM 35.6 °F 28.6 °F 33.8 °F 93% 29.77 in 6.2 mi SW 9.2 mph - N/A   Unknown
5:50 AM 33.8 °F 27.7 °F 33.8 °F 100% 29.77 in - WSW 6.9 mph - N/A   Clear
6:20 AM 33.8 °F 28.6 °F 32.0 °F 93% 29.80 in 6.2 mi SW 5.8 mph - N/A   Partly Cloudy
6:50 AM 35.6 °F 30.7 °F 35.6 °F 100% 29.80 in 6.2 mi WSW 5.8 mph - N/A   Partly Cloudy
7:20 AM 35.6 °F 29.2 °F 35.6 °F 100% 29.80 in 6.2 mi SW 8.1 mph - N/A   Partly Cloudy
7:50 AM 39.2 °F 35.9 °F 37.4 °F 93% 29.80 in 6.2 mi WSW 4.6 mph - N/A   Partly Cloudy
8:20 AM 39.2 °F 33.6 °F 37.4 °F 93% 29.80 in 6.2 mi SW 8.1 mph - N/A   Partly Cloudy
8:50 AM 42.8 °F 38.0 °F 41.0 °F 93% 29.80 in 6.2 mi SW 8.1 mph - N/A   Partly Cloudy
9:20 AM 44.6 °F 39.7 °F 41.0 °F 87% 29.83 in 6.2 mi SW 9.2 mph - N/A   Partly Cloudy
9:50 AM 46.4 °F 41.5 °F 41.0 °F 81% 29.83 in 6.2 mi SW 10.4 mph - N/A   Scattered Clouds
10:20 AM 48.2 °F - 41.0 °F 76% 29.83 in 6.2 mi SW 11.5 mph - N/A   Scattered Clouds
10:50 AM 48.2 °F - 39.2 °F 71% 29.83 in 6.2 mi WSW 10.4 mph - N/A   Scattered Clouds
11:20 AM 50.0 °F - 39.2 °F 66% 29.83 in 6.2 mi WSW 10.4 mph - N/A   Scattered Clouds
11:50 AM 50.0 °F - 39.2 °F 66% 29.83 in 6.2 mi West 10.4 mph - N/A   Scattered Clouds
12:20 PM 50.0 °F - 37.4 °F 62% 29.83 in 6.2 mi West 10.4 mph - N/A   Scattered Clouds
12:50 PM 50.0 °F - 37.4 °F 62% 29.83 in 6.2 mi West 10.4 mph - N/A   Scattered Clouds
1:20 PM 50.0 °F - 37.4 °F 62% 29.83 in 6.2 mi WSW 11.5 mph - N/A   Scattered Clouds
1:50 PM 48.2 °F - 37.4 °F 66% 29.83 in 6.2 mi West 10.4 mph - N/A   Scattered Clouds
2:20 PM 48.2 °F - 37.4 °F 66% 29.80 in 6.2 mi West 10.4 mph - N/A   Scattered Clouds
2:50 PM 50.0 °F - 33.8 °F 54% 29.80 in 6.2 mi West 8.1 mph - N/A   Scattered Clouds
3:20 PM 50.0 °F - 33.8 °F 54% 29.80 in 6.2 mi West 9.2 mph - N/A   Scattered Clouds
3:50 PM 50.0 °F - 35.6 °F 58% 29.80 in 6.2 mi WNW 9.2 mph - N/A   Partly Cloudy
4:20 PM 50.0 °F - 37.4 °F 62% 29.80 in 6.2 mi WNW 9.2 mph - N/A   Scattered Clouds
4:50 PM 48.2 °F - 33.8 °F 58% 29.83 in 6.2 mi WNW 10.4 mph - N/A   Scattered Clouds
5:20 PM 48.2 °F - 30.2 °F 50% 29.83 in 6.2 mi WNW 10.4 mph - N/A   Scattered Clouds
5:50 PM 46.4 °F 42.4 °F 32.0 °F 57% 29.83 in 6.2 mi WNW 8.1 mph - N/A   Partly Cloudy
6:20 PM 44.6 °F 41.4 °F 33.8 °F 66% 29.83 in 6.2 mi WNW 5.8 mph - N/A   Partly Cloudy
6:50 PM 42.8 °F 39.3 °F 33.8 °F 70% 29.86 in 6.2 mi WNW 5.8 mph - N/A   Partly Cloudy
7:20 PM 41.0 °F 37.1 °F 33.8 °F 76% 29.86 in 6.2 mi NW 5.8 mph - N/A   Partly Cloudy
7:50 PM 39.2 °F 37.0 °F 33.8 °F 81% 29.86 in 6.2 mi Variable 3.5 mph - N/A   Partly Cloudy
8:20 PM 39.2 °F 37.0 °F 33.8 °F 81% 29.86 in 6.2 mi Variable 3.5 mph - N/A   Partly Cloudy
8:50 PM 33.8 °F 28.6 °F 32.0 °F 93% 29.89 in 6.2 mi SW 5.8 mph - N/A   Partly Cloudy
9:20 PM 33.8 °F 28.6 °F 32.0 °F 93% 29.89 in - WSW 5.8 mph - N/A   Clear
9:50 PM 33.8 °F 28.6 °F 32.0 °F 93% 29.89 in - SW 5.8 mph - N/A   Clear
10:20 PM 33.8 °F 29.6 °F 32.0 °F 93% 29.92 in - WSW 4.6 mph - N/A   Clear
10:50 PM 33.8 °F 28.6 °F 32.0 °F 93% 29.92 in - SW 5.8 mph - N/A   Clear
11:20 PM 33.8 °F 29.6 °F 32.0 °F 93% 29.92 in - SW 4.6 mph - N/A   Clear
11:50 PM 32.0 °F - 32.0 °F 100% 29.92 in - West 2.3 mph - N/A   Clear